Regional Weather Roundup
Issued by NWS State College, PA

Home | Current Version | Previous Version | Graphics & Text | Print | Product List | Glossary Off
Versions: 1 2 3 4 5 6 7 8 9 10 11 12 13 14 15 16 17 18 19 20 21 22 23 24 25 26 27 28 29 30 31 32 33 34 35 36 37 38 39 40 41 42 43 44 45 46 47 48 49 50

000
ASUS41 KCTP 030603
RWRCTP

REGIONAL WEATHER ROUNDUP
NATIONAL WEATHER SERVICE STATE COLLEGE PA
200 AM EDT THU SEP 03 2015

Note: "fair" indicates few or no clouds below 12,000 feet with no
significant weather and/or obstructions to visibility.

* = STATION THAT DOES NOT REPORT PRECIPITATION /E.G. RAIN...SNOW...ETC/
    THUNDER OR FOG.

PAZ002>004-007>009-013>016-020>023-029>032-030700-
WESTERN PENNSYLVANIA

CITY           SKY/WX    TMP DP  RH WIND       PRES   REMARKS
ERIE           FAIR      72  66  81 S5        29.95F
MEADVILLE      FAIR      71  66  84 S5        30.00F
FRANKLIN*      FAIR      66  63  88 S5        30.03S
NEW CASTLE     FAIR      68  68 100 CALM      30.00F
BEAVER COUNTY  NOT AVBL
BUTLER*        FAIR      66  64  94 CALM      30.02S
PITTSBURGH INT MOCLDY    73  66  78 CALM      30.00F
PITTSBURGH     FAIR      70  63  78 S6        30.00F
INDIANA*       PTCLDY    70  66  88 SW6       30.05S
LATROBE        NOT AVBL
WASHINGTON CO* FAIR      66  64  94 CALM      30.02F
$$

PAZ004>006-010>012-017>019-024>028-033>037-041-042-045-046-049>053-030700-
CENTRAL PENNSYLVANIA

CITY           SKY/WX    TMP DP  RH WIND       PRES   REMARKS
BRADFORD       FOG       59  57  93 CALM      30.03S VSB 1/4
DUBOIS         FAIR      68  64  87 CALM      30.01F FOG
CLEARFIELD     FAIR      66  64  93 SW6       30.01F FOG
JOHNSTOWN      FAIR      67  63  87 SW8       30.05F
ALTOONA        FAIR      66  64  93 S5        30.01F FOG
STATE COLLEGE  FAIR      67  65  94 SW3       29.98F
WILLIAMSPORT   FAIR      70  67  90 N3        29.93S
SELINSGROVE    FAIR      67  66  97 CALM      29.94F FOG
FT INDIANTOWN  FAIR      68  66  95 CALM      29.92F
CAPITAL CITY   FAIR      73  65  75 W3        29.92F
HARRISBURG     FAIR      74  66  76 NW9       29.91F
YORK           FAIR      66  64  93 CALM      29.93F
$$

PAZ038>040-043-044-047-048-054-055-060>062-067>071-030700-
EASTERN PENNSYLVANIA

CITY           SKY/WX    TMP DP  RH WIND       PRES   REMARKS
SCRANTON       FAIR      68  62  81 E6        29.95S
MOUNT POCONO   FAIR      63  60  90 NW5       29.99S
ALLENTOWN      FAIR      70  65  84 CALM      29.92S
QUAKERTOWN*    FAIR      64  64 100 CALM      29.93F
READING        FAIR      70  66  87 CALM      29.91F
LANCASTER      FAIR      71  68  90 W6        29.92F FOG
COATESVILLE    FAIR      73  66  78 W6        29.93F
POTTSTOWN      FAIR      69  65  86 CALM      29.92F
BLUE BELL      FAIR      66  64  94 CALM      29.90S
DOYLESTOWN     FAIR      69  65  86 CALM      29.90F
WILLOW GROVE   NOT AVBL
NORTH PHILA    FAIR      76  62  62 NW5       29.90F
PHILADELPHIA   FAIR      77  71  82 CALM      29.89F
$$



USA.gov is the U.S. government's official web portal to all federal, state and local government web resources and services.